Location: Crescent
(42.8242°N, 73.7329°W)
Time: 01:21:12
(UTC+00:00)

Explorer 7 - Pass Details

Date: 22 February 2026
Orbit: 430 x 541 km, 50.2° (Epoch: 10 March)

Event Time Altitude Azimuth Distance (km) Brightness Sun altitude
Rises 22:44:22 0° 301° (WNW) 2,486 11.0 -2.4°
Reaches altitude 10° 22:46:32 10° 308° (NW) 1,629 9.9 -2.8°
Maximum altitude 22:50:06 46° 22° (NNE) 660 7.0 -3.4°
Drops below altitude 10° 22:53:48 10° 97° (E) 1,691 8.7 -4.1°
Enters shadow 22:55:11 - 101° (ESE) 2,235 9.3 -4.3°
Sets 22:56:05 0° 103° (ESE) 2,594 - -4.5°
